Regional Weather Roundup
Issued by NWS

Home | Current Version | Previous Version | Text Only | Print | Product List | Glossary Off
Versions: 1 2 3 4 5 6 7 8 9 10 11 12 13 14 15 16 17 18 19 20 21 22 23 24 25 26 27 28 29 30 31 32 33 34 35 36 37 38 39 40 41 42 43 44 45 46 47 48 49 50

000
ASUS43 KFSD 231810
RWRSD

WEATHER ROUNDUP FOR SOUTH DAKOTA
NATIONAL WEATHER SERVICE SIOUX FALLS SD
100 PM CDT SUN APR 23 2017

NOTE: "FAIR" INDICATES FEW OR NO CLOUDS BELOW 12,000 FEET WITH NO
SIGNIFICANT WEATHER AND/OR OBSTRUCTIONS TO VISIBILITY.


SDZ001>005-009-010-012>017-231900-
NORTHWEST AND NORTH CENTRAL SOUTH DAKOTA

CITY           SKY/WX    TMP DP  RH WIND       PRES   REMARKS
BUFFALO          N/A     39  50 100 NE16      29.76F
FAITH            N/A     57  41  55 VRB6      29.79F
MOBRIDGE       MOSUNNY   52  36  54 E21       29.84F
$$

SDZ012>016-024>037-041>051-057-063-072>074-231900-
SOUTHWEST AND SOUTH CENTRAL SOUTH DAKOTA

CITY           SKY/WX    TMP DP  RH WIND       PRES   REMARKS
RAPID CTY ARPT SUNNY     62  39  42 N7        29.77F
PIERRE         CLOUDY    67  35  30 S15G29    29.80F
CUSTER         SUNNY     58  26  29 SW8G20    29.83F
ELLSWORTH AFB  CLOUDY    59  41  51 N7        29.78  HAZE
PHILIP         MOSUNNY   70  39  32 SW16G22   29.75F
PINE RIDGE     PTSUNNY   66  39  37 S16G29    29.81F
SPEARFISH      FAIR      54  45  71 NE10      29.80F
WINNER         FAIR      69  32  25 S29G43    29.85F
$$

SDZ004>011-016>023-039-040-231900-
NORTHEAST SOUTH DAKOTA

CITY           SKY/WX    TMP DP  RH WIND       PRES   REMARKS
ABERDEEN       PTSUNNY   59  37  44 E14       29.91F
WATERTOWN      MOSUNNY   64  36  35 SW17G25   29.94F
BROOKINGS      MOSUNNY   66  33  29 MISG        N/A
SISSETON         N/A     56  43  61 SE7       29.96F
$$

SDZ017-020-022-023-036>040-048>070-231900-
SOUTHEAST SOUTH DAKOTA

CITY           SKY/WX    TMP DP  RH WIND       PRES   REMARKS
SIOUX FALLS    PTSUNNY   67  37  33 SW16G26   29.96F
HURON          CLOUDY    65  33  30 S16G26    29.91F
CHAMBERLAIN    CLOUDY    69  37  30 SE21      29.88F
MITCHELL       CLOUDY    69  32  25 S17G26    29.92F
YANKTON        CLOUDY    66  32  28 S22G29    29.96F
$$

ABBREVIATIONS USED IN REMARKS
   TC - TEMPERATURE IN CELSIUS
  WCI - WIND CHILL INDEX
   HX - HEAT INDEX
  VSB - VISIBILITY




USA.gov is the U.S. government's official web portal to all federal, state and local government web resources and services.